Location: Sawmill Trailhead
(33.5800°N, 116.4497°W)
Time: 18:41:52
(UTC-07:00)

Amateur Radio Satellites - All Passes

Search period start: 26 May 2015 18:11
Search period end: 27 May 2015 18:11
Location: Sawmill Trailhead, 33.5800°N, 116.4497°W

Satellite Date Start Highest point End Downlink Frequencies (MHz)
Time Altitude Azimuth
BEESAT 3 26 May 18:20:27 18:24:23 47° 301° (WNW) 18:28:22 437.485
STRAND 1 26 May 18:30:14 18:32:03 12° 90° (E) 18:34:14 437.568
CUTE-I 26 May 18:46:28 18:51:38 54° 260° (W) 18:56:51 437.470
PRISM 26 May 18:52:01 18:55:11 21° 95° (E) 18:58:28 437.425
CUBESAT XI-V 26 May 18:55:33 19:00:13 64° 100° (E) 19:04:54 437.345
AIST 2 26 May 18:56:12 19:00:26 85° 118° (ESE) 19:04:44 435.215
Cubesat XI-IV 26 May 19:07:30 19:12:16 33° 263° (W) 19:17:00 437.490
BEESAT 2 26 May 19:10:02 19:13:01 19° 309° (NW) 19:15:55 435.950
Cosmos 2491 26 May 19:14:07 19:22:38 60° 92° (E) 19:31:16 435.465 / 435.565
YUBILEINY 26 May 19:16:14 19:24:57 82° 264° (W) 19:33:39 435.215
AUBIESAT-1 26 May 19:22:25 19:23:13 11° 98° (E) 19:24:14 437.475
BRITE-PL 26 May 19:24:22 19:28:37 29° 70° (ENE) 19:33:14 437.365/2234.400
GOMX 1 26 May 19:29:08 19:32:48 21° 68° (ENE) 19:36:47 467.674
RS-15 26 May 19:30:45 19:42:13 59° 248° (WSW) 19:53:59 29.354- 29.394
CANX-2 26 May 19:35:45 19:37:25 12° 69° (ENE) 19:39:19 2200.000
CUTE 1.7 + AOD 2 26 May 19:39:24 19:41:01 12° 69° (ENE) 19:42:52 437.475
HO-68 26 May 19:49:02 19:55:20 36° 67° (ENE) 20:01:45 435.675
AIST 1 26 May 19:50:18 19:52:56 17° 89° (E) 19:55:44
SEEDS 26 May 20:01:10 20:04:00 18° 71° (ENE) 20:06:57 437.485
STRAND 1 26 May 20:06:39 20:11:45 62° 286° (WNW) 20:16:49 437.568
CINEMA 3 26 May 20:11:39 20:14:46 17° 69° (ENE) 20:18:05 145.822/145.860
COMPASS 1 26 May 20:14:34 20:17:38 21° 71° (ENE) 20:20:48 437.405
AAUSAT CUBESAT 2 26 May 20:26:38 20:29:57 24° 72° (ENE) 20:33:23 437.432
PRISM 26 May 20:27:13 20:30:36 24° 289° (WNW) 20:33:54 437.425
DOVE 4 26 May 20:29:43 20:34:38 56° 75° (ENE) 20:39:49 437.250
CUBESAT XI-V 26 May 20:35:50 20:37:12 11° 293° (WNW) 20:38:15 437.345
Cosmos 2504 26 May 20:40:22 20:46:32 31° 74° (ENE) 20:52:52 435.465 / 435.565
M-CUBED/EXP-1 PRIME 26 May 20:46:50 20:49:47 29° 291° (WNW) 20:52:42 437.505
AUBIESAT-1 26 May 20:55:18 20:58:09 27° 291° (WNW) 21:01:00 437.475
DELFI C3 26 May 20:56:22 20:58:48 16° 70° (ENE) 21:01:22 145.870
BRITE-PL 26 May 21:02:49 21:07:06 28° 267° (W) 21:11:33 437.365/2234.400
CUBEBUG 2 26 May 21:03:46 21:07:51 30° 72° (ENE) 21:12:00 437.445
GOMX 1 26 May 21:05:52 21:10:36 40° 264° (W) 21:15:36 467.674
ZACube-1 26 May 21:07:19 21:10:33 20° 70° (ENE) 21:13:55 437.345
CANX-2 26 May 21:08:53 21:13:00 45° 261° (W) 21:17:06 2200.000
CUTE 1.7 + AOD 2 26 May 21:12:28 21:16:35 46° 261° (W) 21:20:41 437.475
Cosmos 2491 26 May 21:13:00 21:20:07 25° 290° (WNW) 21:26:56 435.465 / 435.565
YUBILEINY 26 May 21:17:28 21:20:41 12° 280° (W) 21:23:06 435.215
Oscar 11 26 May 21:19:23 21:23:31 46° 75° (ENE) 21:27:42 145.826/435.025
DX 1 26 May 21:19:54 21:21:27 12° 67° (ENE) 21:23:16 434.975-435.025
AIST 1 26 May 21:26:39 21:30:23 29° 283° (WNW) 21:34:05
SEEDS 26 May 21:35:52 21:39:36 29° 264° (W) 21:43:17 437.485
HO-68 26 May 21:36:23 21:43:00 38° 262° (W) 21:49:32 435.675
CINEMA 3 26 May 21:46:50 21:51:35 46° 262° (W) 21:56:25 145.822/145.860
COMPASS 1 26 May 21:49:39 21:53:11 25° 264° (W) 21:56:38 437.405
UWE-3 26 May 21:50:52 21:55:33 80° 76° (ENE) 22:00:15 435.000/436.395/437.385
FUNcube-1 26 May 22:01:31 22:06:06 81° 77° (ENE) 22:10:42 145.935
AAUSAT CUBESAT 2 26 May 22:02:18 22:05:32 21° 266° (W) 22:08:40 437.432
50 SAT 26 May 22:02:44 22:05:24 18° 71° (ENE) 22:08:11 437.505
AISAT 26 May 22:03:09 22:06:13 19° 70° (ENE) 22:09:27 437.250
DOVE 4 26 May 22:10:05 22:12:51 14° 271° (W) 22:15:22 437.250
DELFI C3 26 May 22:30:07 22:33:42 30° 263° (W) 22:37:15 145.870
Cosmos 2504 26 May 22:33:29 22:39:58 37° 270° (W) 22:46:24 435.465 / 435.565
TIGRISAT 26 May 22:34:14 22:37:29 21° 94° (E) 22:40:47 435.000
HUMSAT D 26 May 22:37:33 22:41:53 85° 258° (WSW) 22:46:14 437.325/437.525
CUBEBUG 2 26 May 22:40:41 22:44:31 23° 266° (W) 22:48:15 437.445
ZACube-1 26 May 22:42:31 22:46:41 33° 263° (W) 22:50:49 437.345
UKube-1 26 May 22:44:26 22:48:45 70° 259° (W) 22:53:05 .
DX 1 26 May 22:53:05 22:57:18 50° 260° (W) 23:01:34 434.975-435.025
UNISAT 6 26 May 22:53:59 22:58:02 38° 98° (E) 23:02:02 437.425
Oscar 11 26 May 22:58:19 23:00:01 12° 269° (W) 23:01:25 145.826/435.025
QB50P1 26 May 22:58:21 23:01:10 18° 93° (E) 23:04:07 145.935-145.965
POLYITAN 1 26 May 23:00:09 23:03:07 19° 94° (E) 23:06:12 437.675
CUBEBUG 1 26 May 23:05:20 23:09:28 46° 74° (ENE) 23:13:41 437.445
VELOX 1 26 May 23:06:28 23:10:53 79° 258° (WSW) 23:15:21 145.980
DANDE 26 May 23:08:32 23:13:10 18° 62° (ENE) 23:17:34 436.750
ESTCUBE 1 26 May 23:08:51 23:13:15 60° 75° (ENE) 23:17:41 437.505/2401.250
ISS 26 May 23:16:41 23:19:53 64° 318° (NW) 23:23:07 145.825
NANOSAT C BR1 26 May 23:28:46 23:32:48 41° 98° (E) 23:36:49 145.865
50 SAT 26 May 23:36:30 23:39:57 27° 264° (W) 23:43:20 437.505
QB50P2 26 May 23:36:35 23:40:47 54° 100° (E) 23:44:56 145.880/145.840
ANTELSAT 26 May 23:37:07 23:41:26 61° 284° (WNW) 23:45:39 437.575/2403.000
AISAT 26 May 23:38:38 23:42:37 31° 263° (W) 23:46:34 437.250
CUSAT 1 26 May 23:39:47 23:46:12 38° 72° (ENE) 23:51:16 437.405
SPROUT 26 May 23:44:54 23:48:44 33° 73° (ENE) 23:52:39 437.525
GONETS M04 26 May 23:45:16 23:53:00 35° 74° (ENE) 00:00:50
POPSAT HIP 1 26 May 23:48:49 23:53:06 76° 101° (ESE) 23:57:21 437.405
DUCHIFAT 1 26 May 23:50:50 23:55:07 78° 103° (ESE) 23:59:21 145.980
TISAT 1 27 May 00:08:20 00:12:21 45° 74° (ENE) 00:16:27 437.305
TIGRISAT 27 May 00:10:35 00:14:14 26° 289° (WNW) 00:17:44 435.000
BUGSAT 1 27 May 00:14:21 00:18:39 80° 281° (W) 00:22:51 437.445
UNISAT 6 27 May 00:31:57 00:34:31 15° 291° (WNW) 00:36:53 437.425
QB50P1 27 May 00:33:19 00:37:06 30° 287° (WNW) 00:40:48 145.935-145.965
POLYITAN 1 27 May 00:35:21 00:39:04 28° 288° (WNW) 00:42:41 437.675
PCSat 27 May 00:36:16 00:41:36 67° 113° (ESE) 00:47:00 145.827
O/OREOS (USA 219) 27 May 00:38:17 00:39:34 11° 56° (ENE) 00:41:08 437.305
VERMONT LUNAR 27 May 00:40:28 00:43:15 27° 146° (SSE) 00:46:02 437.305
CUBEBUG 1 27 May 00:44:19 00:46:09 12° 269° (W) 00:47:43 437.445
DANDE 27 May 00:50:01 00:57:36 70° 266° (W) 01:03:23 436.750
ITUPSAT 1 27 May 00:58:39 01:02:27 25° 71° (ENE) 01:06:22 437.325
BEESAT 27 May 01:06:02 01:10:08 31° 72° (ENE) 01:14:20 436.000
NANOSAT C BR1 27 May 01:06:04 01:08:19 14° 291° (WNW) 01:10:21 145.865
PHONESAT 2.4 27 May 01:10:10 01:11:29 12° 141° (SE) 01:12:54 2401.200-2431.200
Cosmos 2499 27 May 01:10:42 01:14:58 17° 69° (ENE) 01:19:39 435.465 / 435.565
SWISSCUBE 27 May 01:14:10 01:18:36 41° 73° (ENE) 01:23:05 437.505
QB50P2 27 May 01:15:11 01:16:14 11° 293° (WNW) 01:17:02 145.880/145.840
Oscar 19 27 May 01:21:43 01:25:39 23° 94° (E) 01:29:42 437.125/150
SPROUT 27 May 01:22:04 01:24:56 17° 267° (W) 01:27:39 437.525
CUSAT 1 27 May 01:23:04 01:28:30 25° 275° (W) 01:32:48 437.405
GONETS M04 27 May 01:41:49 01:49:59 43° 271° (W) 01:57:57
TISAT 1 27 May 01:46:47 01:48:26 12° 269° (W) 01:49:48 437.305
Gurwin Techsat 1B 27 May 02:13:40 02:17:21 20° 93° (E) 02:21:13 435.225
O/OREOS (USA 219) 27 May 02:15:04 02:19:27 58° 253° (WSW) 02:23:50 437.305
STARS 27 May 02:15:36 02:18:22 17° 69° (ENE) 02:21:18 437.465
VERMONT LUNAR 27 May 02:17:12 02:20:20 48° 340° (NNW) 02:23:28 437.305
PCSat 27 May 02:22:16 02:25:36 16° 311° (NW) 02:28:43 145.827
ITUPSAT 1 27 May 02:36:13 02:40:17 27° 264° (W) 02:44:15 437.325
BEESAT 3 27 May 02:43:04 02:46:34 27° 54° (NE) 02:50:03 437.485
BEESAT 27 May 02:44:19 02:48:01 22° 265° (W) 02:51:37 436.000
PHONESAT 2.4 27 May 02:45:46 02:49:14 77° 155° (SSE) 02:52:43 2401.200-2431.200
KKS-1 27 May 02:46:02 02:50:28 64° 75° (ENE) 02:54:55 437.445
SWISSCUBE 27 May 02:53:40 02:56:41 16° 268° (W) 02:59:28 437.505
Oscar 19 27 May 03:00:26 03:05:05 34° 289° (WNW) 03:09:39 437.125/150
Cosmos 2499 27 May 03:01:49 03:08:46 64° 267° (W) 03:15:53 435.465 / 435.565
SO-50 27 May 03:13:22 03:17:59 74° 300° (WNW) 03:22:48 436.795
ITAMSAT 1 27 May 03:14:03 03:19:18 87° 100° (E) 03:24:32 435.822/435.867
AO-7 27 May 03:15:00 03:18:56 15° 90° (E) 03:23:32 29.400- 29.500
AIST 2 27 May 03:22:42 03:25:32 18° 50° (NE) 03:28:26 435.215
BEESAT 2 27 May 03:31:30 03:35:37 81° 61° (ENE) 03:39:38 435.950
HORYU 2 27 May 03:35:07 03:38:06 18° 94° (E) 03:41:14 437.375
STARS 27 May 03:50:27 03:54:34 36° 262° (W) 03:58:40 437.465
Gurwin Techsat 1B 27 May 03:52:32 03:57:32 42° 288° (WNW) 04:02:29 435.225
VERMONT LUNAR 27 May 03:55:19 03:57:57 23° 356° (N) 04:00:35 437.305
JAS-2 27 May 04:03:19 04:08:06 38° 98° (E) 04:13:09 435.910
MOZHAYETS 4 27 May 04:15:51 04:20:10 43° 74° (ENE) 04:24:31
BEESAT 3 27 May 04:21:23 04:24:23 20° 249° (WSW) 04:27:14 437.485
PHONESAT 2.4 27 May 04:24:26 04:27:34 31° 349° (NNW) 04:30:42 2401.200-2431.200
AIST 2 27 May 05:00:24 05:04:16 36° 247° (WSW) 05:08:01 435.215
AO-7 27 May 05:04:25 05:12:51 89° 281° (W) 05:21:14 29.400- 29.500
HORYU 2 27 May 05:10:54 05:14:50 31° 288° (WNW) 05:18:42 437.375
Cosmos 2491 27 May 05:30:38 05:37:10 24° 69° (ENE) 05:44:01 435.465 / 435.565
VERMONT LUNAR 27 May 05:32:47 05:35:40 31° 13° (NNE) 05:38:34 437.305
STRAND 1 27 May 05:42:50 05:44:47 13° 66° (ENE) 05:47:02 437.568
ISS 27 May 05:47:47 05:50:22 21° 34° (NE) 05:52:59 145.825
JAS-2 27 May 05:49:17 05:53:05 20° 291° (WNW) 05:56:49 435.910
Cubesat XI-IV 27 May 05:50:29 05:52:57 14° 91° (E) 05:55:47 437.490
CUBESAT XI-V 27 May 05:55:08 05:59:21 38° 73° (ENE) 06:03:39 437.345
MOZHAYETS 4 27 May 05:55:08 05:57:40 14° 269° (W) 05:59:57
M-CUBED/EXP-1 PRIME 27 May 05:59:11 06:00:09 11° 66° (ENE) 06:01:20 437.505
PHONESAT 2.4 27 May 06:03:16 06:06:15 26° 6° (N) 06:09:14 2401.200-2431.200
AUBIESAT-1 27 May 06:06:51 06:08:06 11° 66° (ENE) 06:09:33 437.475
YUBILEINY 27 May 06:18:01 06:24:10 23° 85° (E) 06:30:41 435.215
AO-7 27 May 06:59:29 07:04:42 18° 303° (WNW) 07:09:28 29.400- 29.500
CUTE-I 27 May 07:07:27 07:12:51 86° 100° (E) 07:18:14 437.470
VERMONT LUNAR 27 May 07:09:51 07:13:00 60° 209° (SSW) 07:16:09 437.305
PRISM 27 May 07:12:34 07:16:34 55° 259° (W) 07:20:34 437.425
STRAND 1 27 May 07:18:27 07:23:30 65° 259° (W) 07:28:35 437.568
ISS 27 May 07:23:55 07:26:48 29° 229° (SW) 07:29:40 145.825
Cosmos 2491 27 May 07:26:04 07:34:47 64° 267° (W) 07:43:22 435.465 / 435.565
Cubesat XI-IV 27 May 07:28:13 07:33:31 60° 286° (WNW) 07:38:47 437.490
M-CUBED/EXP-1 PRIME 27 May 07:30:28 07:34:44 54° 254° (WSW) 07:38:41 437.505
CUBESAT XI-V 27 May 07:34:03 07:36:59 16° 268° (W) 07:39:44 437.345
BRITE-PL 27 May 07:34:45 07:37:31 14° 88° (E) 07:40:33 437.365/2234.400
AIST 1 27 May 07:37:15 07:41:26 42° 80° (E) 07:45:38
AUBIESAT-1 27 May 07:38:27 07:42:38 49° 255° (WSW) 07:46:30 437.475
RS-15 27 May 07:38:47 07:47:42 32° 107° (ESE) 07:57:06 29.354- 29.394
PHONESAT 2.4 27 May 07:41:18 07:44:44 62° 22° (NNE) 07:48:10 2401.200-2431.200
YUBILEINY 27 May 08:11:41 08:20:23 63° 279° (W) 08:29:02 435.215
DOVE 4 27 May 08:34:20 08:38:03 21° 92° (E) 08:41:46 437.250
CUTE-I 27 May 08:51:26 08:52:18 10° 296° (WNW) 08:52:48 437.470
CANX-2 27 May 08:58:12 09:02:08 38° 98° (E) 09:06:05 2200.000
CUTE 1.7 + AOD 2 27 May 09:01:42 09:05:38 38° 98° (E) 09:09:34 437.475
HO-68 27 May 09:07:47 09:14:44 53° 101° (E) 09:21:41 435.675
BRITE-PL 27 May 09:11:01 09:16:34 60° 285° (WNW) 09:21:47 437.365/2234.400
GOMX 1 27 May 09:11:52 09:17:13 89° 88° (E) 09:22:15 467.674
Oscar 11 27 May 09:13:01 09:14:18 11° 90° (E) 09:15:51 145.826/435.025
Cosmos 2504 27 May 09:13:14 09:20:20 33° 89° (E) 09:27:15 435.465 / 435.565
AIST 1 27 May 09:16:53 09:18:44 12° 272° (W) 09:20:20
PHONESAT 2.4 27 May 09:19:54 09:22:40 22° 215° (SW) 09:25:22 2401.200-2431.200
SEEDS 27 May 09:23:37 09:27:44 58° 100° (E) 09:31:51 437.485
PCSat 27 May 09:28:52 09:33:07 24° 53° (NE) 09:37:29 145.827
TIGRISAT 27 May 09:30:09 09:32:23 14° 68° (ENE) 09:34:50 435.000
COMPASS 1 27 May 09:36:15 09:40:23 67° 101° (E) 09:44:30 437.405
UWE-3 27 May 09:46:08 09:49:21 21° 93° (E) 09:52:37 435.000/436.395/437.385
CINEMA 3 27 May 09:46:14 09:50:51 61° 100° (E) 09:55:14 145.822/145.860
AAUSAT CUBESAT 2 27 May 09:48:04 09:52:12 80° 101° (ESE) 09:56:19 437.432
RS-15 27 May 09:48:48 09:59:32 60° 305° (NW) 10:10:28 29.354- 29.394
UNISAT 6 27 May 09:49:14 09:52:53 23° 71° (ENE) 09:56:36 437.425
FUNcube-1 27 May 09:55:14 09:58:18 20° 93° (E) 10:01:27 145.935
DOVE 4 27 May 10:11:22 10:15:55 33° 288° (WNW) 10:20:11 437.250
DELFI C3 27 May 10:12:53 10:16:43 45° 99° (E) 10:20:35 145.870
NANOSAT C BR1 27 May 10:18:11 10:21:10 19° 70° (ENE) 10:24:17 145.865
QB50P2 27 May 10:26:00 10:29:27 25° 72° (ENE) 10:33:00 145.880/145.840
HUMSAT D 27 May 10:26:41 10:29:42 20° 94° (E) 10:32:49 437.325/437.525
JUGNU 27 May 10:27:14 10:31:05 18° 171° (S) 10:34:57 437.505
ANTELSAT 27 May 10:31:24 10:36:05 70° 76° (ENE) 10:40:44 437.575/2403.000
ZACube-1 27 May 10:35:01 10:39:18 65° 100° (E) 10:43:28 437.345
CUBEBUG 2 27 May 10:35:10 10:39:36 74° 284° (WNW) 10:43:51 437.445
CANX-2 27 May 10:35:30 10:37:46 14° 291° (WNW) 10:39:51 2200.000
UKube-1 27 May 10:36:26 10:40:03 26° 96° (E) 10:43:43 .
POPSAT HIP 1 27 May 10:37:46 10:41:34 33° 73° (ENE) 10:45:28 437.405
CUTE 1.7 + AOD 2 27 May 10:38:56 10:41:15 14° 291° (WNW) 10:43:23 437.475
DUCHIFAT 1 27 May 10:39:21 10:43:09 33° 73° (ENE) 10:47:02 145.980
DX 1 27 May 10:45:29 10:49:32 36° 98° (E) 10:53:36 434.975-435.025
Oscar 11 27 May 10:46:39 10:50:48 46° 285° (WNW) 10:54:54 145.826/435.025
HO-68 27 May 10:56:23 11:02:06 26° 295° (WNW) 11:07:35 435.675
CUBEBUG 1 27 May 11:00:16 11:01:51 12° 91° (E) 11:03:43 437.445
BUGSAT 1 27 May 11:00:25 11:04:15 39° 74° (ENE) 11:08:12 437.445
VELOX 1 27 May 11:01:30 11:05:14 26° 96° (E) 11:09:03 145.980
TIGRISAT 27 May 11:04:10 11:08:46 51° 261° (W) 11:13:18 435.000
Cosmos 2504 27 May 11:05:37 11:13:35 43° 282° (WNW) 11:20:58 435.465 / 435.565
ESTCUBE 1 27 May 11:06:38 11:09:35 18° 93° (E) 11:12:44 437.505/2401.250
PCSat 27 May 11:11:39 11:16:43 41° 250° (WSW) 11:21:43 145.827
50 SAT 27 May 11:16:23 11:20:05 44° 99° (E) 11:23:46 437.505
QB50P1 27 May 11:21:17 11:25:32 70° 259° (W) 11:29:49 145.935-145.965
UWE-3 27 May 11:22:14 11:25:53 26° 288° (WNW) 11:29:21 435.000/436.395/437.385
POLYITAN 1 27 May 11:23:32 11:27:48 64° 259° (W) 11:32:05 437.675
UNISAT 6 27 May 11:25:26 11:29:31 29° 264° (W) 11:33:32 437.425
CINEMA 3 27 May 11:26:10 11:27:31 11° 294° (WNW) 11:28:33 145.822/145.860
FUNcube-1 27 May 11:31:02 11:34:39 26° 288° (WNW) 11:38:09 145.935
AISAT 27 May 11:32:45 11:37:14 67° 101° (E) 11:41:41 437.250
SRMSAT 27 May 11:45:34 11:49:01 16° 169° (S) 11:52:32 437.500
SO-50 27 May 11:48:54 11:53:25 35° 55° (NE) 11:57:53 436.795
DELFI C3 27 May 11:50:14 11:51:29 11° 291° (WNW) 11:52:30 145.870
NANOSAT C BR1 27 May 11:53:06 11:56:50 29° 264° (W) 12:00:32 145.865
QB50P2 27 May 12:01:54 12:05:19 22° 265° (W) 12:08:37 145.880/145.840
HUMSAT D 27 May 12:02:02 12:05:27 25° 288° (WNW) 12:08:45 437.325/437.525
RS-15 27 May 12:08:21 12:15:09 17° 333° (NNW) 12:21:36 29.354- 29.394
DANDE 27 May 12:11:40 12:17:10 27° 85° (E) 12:23:46 436.750
UKube-1 27 May 12:12:40 12:16:04 22° 290° (WNW) 12:19:21 .
POPSAT HIP 1 27 May 12:14:44 12:17:34 16° 267° (W) 12:20:13 437.405
JUGNU 27 May 12:15:08 12:19:29 21° 181° (S) 12:23:48 437.505
DUCHIFAT 1 27 May 12:16:20 12:19:05 16° 267° (W) 12:21:40 145.980
DX 1 27 May 12:22:41 12:25:31 16° 291° (WNW) 12:28:09 434.975-435.025
CUBEBUG 1 27 May 12:34:14 12:38:32 48° 286° (WNW) 12:42:47 437.445
Oscar 19 27 May 12:34:50 12:38:46 23° 69° (ENE) 12:42:51 437.125/150
BUGSAT 1 27 May 12:37:58 12:39:58 13° 269° (W) 12:41:45 437.445
CUSAT 1 27 May 12:37:59 12:44:50 58° 93° (E) 12:52:53 437.405
VELOX 1 27 May 12:38:08 12:41:41 23° 290° (WNW) 12:45:07 145.980
GONETS M04 27 May 12:40:43 12:48:55 46° 90° (E) 12:57:15
ESTCUBE 1 27 May 12:42:27 12:46:34 34° 287° (WNW) 12:50:39 437.505/2401.250
50 SAT 27 May 12:53:50 12:54:26 10° 291° (WNW) 12:54:46 437.505
SPROUT 27 May 13:10:59 13:15:19 70° 283° (WNW) 13:19:36 437.525
BEESAT 27 May 13:12:59 13:13:40 10° 90° (E) 13:14:43 436.000
SWISSCUBE 27 May 13:19:53 13:22:27 15° 92° (E) 13:25:15 437.505
SO-50 27 May 13:29:51 13:33:47 23° 249° (WSW) 13:37:33 436.795
Gurwin Techsat 1B 27 May 13:31:01 13:34:54 22° 69° (ENE) 13:38:57 435.225
TISAT 1 27 May 13:32:18 13:36:29 54° 285° (WNW) 13:40:36 437.305
SRMSAT 27 May 13:33:14 13:37:33 21° 179° (S) 13:41:53 437.500
Cosmos 2499 27 May 13:43:19 13:48:00 18° 86° (E) 13:52:59 435.465 / 435.565
DANDE 27 May 13:53:06 13:59:51 53° 284° (WNW) 14:07:56 436.750
JUGNU 27 May 14:04:17 14:07:51 16° 191° (S) 14:11:21 437.505
AO-7 27 May 14:10:37 14:15:02 16° 57° (ENE) 14:19:57 29.400- 29.500
Oscar 19 27 May 14:13:11 14:17:56 36° 263° (W) 14:22:40 437.125/150
JAS-2 27 May 14:14:40 14:16:49 12° 66° (ENE) 14:19:19 435.910
CUSAT 1 27 May 14:22:01 14:28:09 27° 293° (WNW) 14:34:40 437.405
ITAMSAT 1 27 May 14:27:59 14:33:09 87° 72° (ENE) 14:38:21 435.822/435.867
HORYU 2 27 May 14:31:28 14:32:43 11° 67° (ENE) 14:34:14 437.375
RS-15 27 May 14:32:01 14:34:33 11° 10° (N) 14:37:22 29.354- 29.394
GONETS M04 27 May 14:38:07 14:45:58 33° 287° (WNW) 14:53:38
ITUPSAT 1 27 May 14:39:54 14:44:42 77° 284° (WNW) 14:49:29 437.325
KKS-1 27 May 14:42:24 14:45:15 17° 93° (E) 14:48:16 437.445
O/OREOS (USA 219) 27 May 14:44:43 14:48:23 25° 103° (ESE) 14:52:09 437.305
BEESAT 27 May 14:47:16 14:52:00 62° 284° (WNW) 14:56:42 436.000
SWISSCUBE 27 May 14:56:01 15:00:35 45° 287° (WNW) 15:05:07 437.505
Gurwin Techsat 1B 27 May 15:09:42 15:14:40 39° 262° (W) 15:19:35 435.225
SRMSAT 27 May 15:22:12 15:26:06 18° 188° (S) 15:29:57 437.500
Cosmos 2499 27 May 15:32:23 15:40:39 72° 278° (W) 15:48:16 435.465 / 435.565
STARS 27 May 15:43:52 15:48:12 55° 100° (E) 15:52:31 437.465
JAS-2 27 May 15:54:34 16:01:30 88° 254° (WSW) 16:07:36 435.910
AO-7 27 May 15:58:34 16:06:51 86° 71° (ENE) 16:15:13 29.400- 29.500
HORYU 2 27 May 16:04:31 16:08:56 57° 260° (W) 16:13:21 437.375
MOZHAYETS 4 27 May 16:16:29 16:18:46 14° 91° (E) 16:21:19
KKS-1 27 May 16:17:57 16:22:01 34° 287° (WNW) 16:26:01 437.445
O/OREOS (USA 219) 27 May 16:24:05 16:27:47 24° 298° (WNW) 16:31:22 437.305
BEESAT 3 27 May 16:33:45 16:35:36 13° 110° (ESE) 16:37:40 437.485
RS-15 27 May 16:42:49 16:52:34 31° 43° (NE) 17:02:58 29.354- 29.394
Cubesat XI-IV 27 May 17:08:43 17:11:48 16° 67° (ENE) 17:15:08 437.490
BEESAT 2 27 May 17:21:24 17:25:12 39° 114° (ESE) 17:29:06 435.950
STARS 27 May 17:22:42 17:24:14 11° 293° (WNW) 17:25:29 437.465
JAS-2 27 May 17:45:58 17:47:11 10° 270° (W) 17:47:47 435.910
MOZHAYETS 4 27 May 17:51:56 17:56:15 43° 286° (WNW) 18:00:34
AO-7 27 May 17:55:55 18:00:43 15° 270° (W) 18:04:54 29.400- 29.500
CUBESAT XI-V 27 May 17:57:21 17:59:33 14° 91° (E) 18:02:01 437.345
